QPF
0.00 0.00 0.00 0.00 0.00 0.00 0.00 0.00 0.00 0.00 0.00 0.00 0.00 0.00 0.00 0.00 0.00 0.00 0.00 0.00 0.01 0.00 0.00 0.01 0.00 0.00 0.00 0.00 0.00 0.00 0.00 0.00 0.00 0.00 0.00 0.00 0.00 0.00 0.00 0.00 0.00 0.00 0.00
0.00 0.00 0.00 0.00 0.00 0.00 0.00 0.00 0.00 0.00 0.00 0.00 0.00 0.00 0.00 0.00 0.00 0.00 0.00 0.00 0.00 0.00 0.00 0.00 0.00 0.00 0.00 0.00 0.00 0.00 0.00 0.00 0.00 0.00 0.00 0.00 0.00 0.00 0.00 0.00 0.00 0.00 0.00
0.00 0.00 0.00 0.00 0.00 0.00 0.00 0.00 0.00 0.00 0.00 0.00 0.00 0.00 0.00 0.00 0.00 0.00 0.00 0.00 0.00 0.00 0.00 0.00 0.00 0.00 0.00 0.00 0.00 0.00 0.00 0.00 0.00 0.00 0.00 0.00 0.00 0.00 0.00 0.00 0.00 0.00 0.00
0.00 0.00 0.00 0.00 0.00 0.00 0.00 0.00 0.00 0.00 0.00 0.00 0.00 0.00 0.00 0.00 0.00 0.00 0.00 0.00 0.00 0.00 0.00 0.00 0.00 0.00 0.00 0.00 0.00 0.00 0.00 0.00 0.00 0.00 0.00 0.00 0.00 0.00 0.00 0.00 0.00 0.00 0.00
0.00 0.00 0.00 0.00 0.00 0.00 0.00 0.00 0.00 0.00 0.00 0.00 0.00 0.00 0.00 0.00 0.00 0.00 0.00 0.00 0.00 0.00 0.00 0.00 0.00 0.00 0.00 0.00 0.00 0.00 0.00 0.00 0.00 0.00 0.00 0.00 0.00 0.00 0.00 0.00 0.00 0.00 0.00
0.00 0.00 0.00 0.00 0.00 0.00 0.00 0.00 0.00 0.00 0.00 0.00 0.00 0.00 0.00 0.00 0.00 0.00 0.00 0.00 0.00 0.00 0.00 0.00 0.00 0.00 0.00 0.00 0.00 0.00 0.00 0.00 0.00 0.00 0.00 0.00 0.00 0.00 0.00 0.00 0.00 0.00 0.00
0.00 0.00 0.00 0.00 0.00 0.00 0.00 0.00 0.00 0.00 0.00 0.00 0.00 0.00 0.00 0.00 0.00 0.00 0.00 0.00 0.00 0.00 0.00 0.00 0.00 0.00 0.00 0.00 0.00 0.00 0.00 0.00 0.00 0.00 0.00 0.00 0.00 0.00 0.00 0.00 0.00 0.01 0.01
0.00 0.00 0.00 0.00 0.00 0.00 0.00 0.00 0.00 0.00 0.00 0.00 0.00 0.00 0.00 0.00 0.00 0.00 0.00 0.00 0.00 0.00 0.00 0.00 0.00 0.00 0.00 0.00 0.00 0.00 0.00 0.00 0.00 0.00 0.00 0.00 0.00 0.00 0.00 0.00 0.00 0.00 0.00
0.00 0.00 0.00 0.00 0.00 0.00 0.00 0.00 0.00 0.00 0.00 0.00 0.00 0.00 0.00 0.00 0.00 0.00 0.00 0.00 0.00 0.00 0.00 0.00 0.00 0.00 0.00 0.00 0.00 0.00 0.00 0.00 0.00 0.00 0.00 0.00 0.00 0.00 0.00 0.00 0.00 0.00 0.00
0.00 0.00 0.00 0.00 0.00 0.00 0.00 0.00 0.00 0.00 0.00 0.00 0.00 0.00 0.00 0.00 0.00 0.00 0.00 0.00 0.00 0.00 0.00 0.00 0.00 0.00 0.00 0.00 0.00 0.00 0.00 0.00 0.00 0.00 0.00 0.00 0.00 0.00 0.00 0.00 0.00 0.01 0.02
0.00 0.00 0.00 0.00 0.00 0.00 0.00 0.00 0.00 0.00 0.00 0.00 0.00 0.00 0.00 0.00 0.00 0.00 0.00 0.00 0.00 0.00 0.00 0.00 0.00 0.00 0.00 0.00 0.00 0.00 0.00 0.00 0.00 0.00 0.00 0.00 0.00 0.00 0.00 0.00 0.01 0.02 0.02
0.00 0.00 0.00 0.00 0.00 0.00 0.00 0.00 0.00 0.00 0.00 0.00 0.00 0.00 0.00 0.00 0.00 0.00 0.00 0.00 0.00 0.00 0.00 0.00 0.00 0.00 0.00 0.00 0.00 0.00 0.00 0.00 0.00 0.00 0.00 0.00 0.00 0.00 0.00 0.00 0.02 0.01 0.00
0.00 0.00 0.00 0.00 0.00 0.00 0.00 0.00 0.00 0.00 0.00 0.00 0.00 0.00 0.00 0.00 0.00 0.00 0.00 0.00 0.00 0.00 0.00 0.00 0.00 0.00 0.00 0.00 0.00 0.00 0.00 0.00 0.00 0.00 0.00 0.00 0.00 0.00 0.00 0.00 0.00 0.00 0.00
0.00 0.00 0.00 0.00 0.00 0.00 0.00 0.00 0.00 0.00 0.00 0.00 0.00 0.00 0.00 0.00 0.00 0.00 0.00 0.00 0.00 0.00 0.00 0.00 0.00 0.00 0.00 0.00 0.00 0.00 0.00 0.00 0.00 0.00 0.00 0.00 0.00 0.00 0.02 0.00 0.00 0.00 0.01
0.01 0.00 0.00 0.00 0.00 0.00 0.00 0.00 0.00 0.00 0.00 0.00 0.00 0.00 0.00 0.00 0.00 0.00 0.00 0.00 0.00 0.00 0.00 0.00 0.00 0.00 0.00 0.00 0.00 0.00 0.00 0.00 0.00 0.00 0.00 0.00 0.00 0.02 0.03 0.00 0.00 0.00 0.00
0.01 0.01 0.01 0.00 0.00 0.00 0.00 0.00 0.00 0.00 0.00 0.00 0.00 0.00 0.00 0.00 0.00 0.00 0.00 0.00 0.00 0.00 0.00 0.00 0.00 0.00 0.00 0.00 0.00 0.00 0.00 0.00 0.00 0.00 0.01 0.01 0.01 0.01 0.01 0.01 0.00 0.00 0.00
0.00 0.00 0.01 0.00 0.00 0.00 0.00 0.00 0.00 0.00 0.00 0.00 0.00 0.00 0.00 0.02 0.00 0.00 0.00 0.00 0.00 0.00 0.00 0.00 0.00 0.00 0.00 0.00 0.00 0.00 0.00 0.00 0.00 0.00 0.01 0.01 0.01 0.00 0.01 0.00 0.00 0.00 0.00
0.00 0.01 0.01 0.00 0.01 0.01 0.00 0.00 0.00 0.00 0.00 0.01 0.00 0.00 0.00 0.00 0.01 0.00 0.00 0.00 0.00 0.00 0.00 0.00 0.00 0.00 0.00 0.00 0.00 0.00 0.00 0.00 0.00 0.00 0.00 0.00 0.00 0.00 0.00 0.00 0.00 0.00 0.00
0.04 0.02 0.02 0.01 0.01 0.01 0.01 0.04 0.05 0.07 0.01 0.00 0.00 0.01 0.00 0.01 0.01 0.01 0.01 0.00 0.00 0.00 0.00 0.00 0.00 0.00 0.00 0.00 0.00 0.00 0.00 0.00 0.00 0.01 0.00 0.00 0.00 0.00 0.00 0.00 0.00 0.00 0.00
0.14 0.14 0.15 0.15 0.13 0.11 0.12 0.21 0.30 0.14 0.10 0.02 0.02 0.00 0.00 0.00 0.00 0.00 0.00 0.00 0.00 0.00 0.00 0.00 0.00 0.00 0.00 0.00 0.00 0.00 0.00 0.01 0.01 0.01 0.01 0.00 0.00 0.00 0.01 0.00 0.00 0.00 0.00
0.08 0.10 0.20 0.22 0.24 0.25 0.25 0.12 0.08 0.06 0.06 0.02 0.00 0.00 0.00 0.00 0.00 0.00 0.00 0.00 0.00 0.00 0.00 0.00 0.00 0.00 0.00 0.00 0.00 0.00 0.00 0.01 0.01 0.00 0.00 0.00 0.00 0.01 0.01 0.01 0.00 0.00 0.00
0.03 0.06 0.09 0.16 0.19 0.15 0.11 0.06 0.04 0.03 0.02 0.01 0.00 0.00 0.00 0.01 0.03 0.01 0.02 0.01 0.00 0.00 0.00 0.00 0.00 0.00 0.00 0.00 0.00 0.00 0.01 0.00 0.00 0.00 0.00 0.00 0.00 0.01 0.01 0.00 0.00 0.00 0.00
0.00 0.01 0.03 0.04 0.04 0.05 0.05 0.05 0.03 0.01 0.01 0.00 0.00 0.00 0.01 0.00 0.00 0.00 0.00 0.00 0.00 0.00 0.00 0.00 0.00 0.00 0.00 0.00 0.00 0.00 0.00 0.00 0.01 0.01 0.00 0.00 0.00 0.00 0.00 0.00 0.00 0.00 0.00
0.00 0.00 0.00 0.00 0.00 0.00 0.00 0.00 0.00 0.00 0.00 0.00 0.00 0.00 0.01 0.00 0.00 0.00 0.00 0.00 0.00 0.00 0.00 0.00 0.00 0.00 0.00 0.00 0.00 0.00 0.00 0.00 0.00 0.00 0.00 0.00 0.00 0.00 0.00 0.00 0.00 0.00 0.00
0.00 0.00 0.00 0.00 0.00 0.00 0.00 0.00 0.00 0.00 0.00 0.00 0.00 0.00 0.00 0.02 0.01 0.00 0.00 0.00 0.00 0.00 0.00 0.00 0.00 0.00 0.00 0.00 0.00 0.00 0.00 0.00 0.00 0.00 0.00 0.00 0.00 0.00 0.00 0.00 0.00 0.00 0.00
0.00 0.00 0.00 0.00 0.00 0.00 0.00 0.00 0.00 0.00 0.00 0.00 0.00 0.00 0.00 0.00 0.00 0.00 0.00 0.00 0.00 0.00 0.00 0.00 0.00 0.00 0.00 0.00 0.00 0.00 0.00 0.00 0.00 0.00 0.00 0.00 0.00 0.00 0.00 0.00 0.00 0.00 0.00
MSLP
1010.42 1011.31 1012.10 1012.80 1013.35 1013.80 1013.99 1014.37 1014.63 1014.88 1015.02 1015.40 1015.83 1016.21 1016.70 1017.11 1017.34 1017.70 1018.02 1018.16 1018.44 1018.57 1018.55 1018.70 1018.77 1018.62 1018.58 1018.47 1018.47 1018.52 1018.51 1018.59 1018.60 1018.17 1017.78 1017.49 1017.22 1017.12 1016.80 1016.52 1016.29 1016.18 1016.00
1009.29 1010.38 1011.22 1011.97 1012.61 1013.02 1013.53 1013.64 1014.12 1014.50 1014.78 1015.03 1015.48 1015.90 1016.35 1016.76 1017.06 1017.32 1017.67 1017.76 1017.86 1018.14 1018.18 1018.24 1018.26 1018.29 1018.40 1018.37 1018.34 1018.35 1018.32 1018.28 1018.41 1018.19 1017.90 1017.64 1017.27 1016.76 1016.35 1016.10 1015.65 1015.41 1015.18
1008.32 1009.46 1010.34 1011.04 1011.58 1012.11 1012.69 1013.10 1013.40 1013.94 1014.42 1014.80 1015.06 1015.46 1015.84 1016.24 1016.58 1016.84 1017.14 1017.46 1017.54 1017.53 1017.63 1017.73 1017.88 1017.97 1018.04 1018.03 1018.00 1018.05 1018.00 1017.97 1018.07 1018.10 1017.87 1017.28 1016.81 1016.23 1015.88 1015.49 1015.47 1015.16 1014.88
1007.06 1008.22 1009.20 1009.98 1010.53 1011.18 1011.84 1012.50 1012.84 1013.21 1013.77 1014.17 1014.58 1014.92 1015.31 1015.67 1015.99 1016.28 1016.56 1016.83 1017.01 1017.08 1017.08 1017.21 1017.28 1017.39 1017.48 1017.58 1017.67 1017.70 1017.71 1017.81 1017.83 1017.76 1017.50 1017.15 1016.62 1015.79 1015.64 1015.77 1015.46 1015.12 1014.69
1005.66 1006.94 1007.71 1008.66 1009.72 1010.51 1011.02 1011.59 1012.18 1012.64 1013.04 1013.50 1013.94 1014.28 1014.63 1014.92 1015.21 1015.58 1015.89 1016.15 1016.44 1016.61 1016.60 1016.63 1016.70 1016.70 1016.79 1016.92 1017.04 1017.12 1017.25 1017.39 1017.39 1017.26 1017.04 1016.70 1016.44 1016.12 1016.10 1015.83 1015.64 1015.32 1014.99
1004.51 1005.46 1006.75 1007.88 1008.80 1009.54 1010.27 1010.80 1011.47 1011.89 1012.26 1012.73 1013.15 1013.49 1013.84 1014.11 1014.31 1014.67 1015.15 1015.53 1015.70 1015.97 1016.16 1016.20 1016.16 1016.18 1016.24 1016.36 1016.50 1016.62 1016.72 1016.99 1017.12 1017.18 1017.05 1016.89 1016.52 1016.38 1016.12 1016.07 1015.86 1015.54 1015.00
1003.54 1004.65 1005.69 1006.66 1007.62 1008.47 1009.19 1009.97 1010.45 1010.98 1011.46 1011.78 1012.30 1012.69 1012.97 1013.36 1013.60 1013.89 1014.30 1014.76 1015.04 1015.16 1015.33 1015.54 1015.69 1015.60 1015.64 1015.78 1015.79 1015.86 1015.93 1016.01 1016.13 1016.34 1016.50 1016.33 1016.08 1015.96 1015.94 1015.79 1015.69 1015.38 1015.12
1002.82 1003.69 1004.70 1005.68 1006.52 1007.52 1008.38 1008.94 1009.58 1010.08 1010.52 1011.01 1011.40 1011.86 1012.22 1012.50 1012.89 1013.27 1013.62 1014.09 1014.22 1014.35 1014.55 1014.78 1014.90 1014.98 1015.00 1015.11 1015.20 1015.18 1015.16 1015.08 1015.05 1015.27 1015.42 1015.22 1015.13 1015.10 1015.17 1015.04 1015.06 1014.94 1014.74
1002.04 1002.85 1003.74 1004.70 1005.68 1006.60 1007.41 1008.01 1008.66 1009.35 1009.79 1010.08 1010.45 1010.90 1011.33 1011.67 1012.00 1012.46 1013.09 1013.56 1013.56 1013.64 1013.74 1013.92 1014.14 1014.24 1014.20 1014.56 1014.91 1014.78 1014.54 1014.23 1013.86 1014.34 1014.40 1014.24 1014.18 1014.22 1014.30 1014.62 1014.70 1014.74 1014.50
1001.31 1002.04 1003.10 1003.98 1004.81 1005.58 1006.26 1007.06 1007.71 1008.33 1008.73 1009.18 1009.53 1009.89 1010.32 1010.77 1011.23 1011.64 1012.29 1012.64 1012.78 1012.95 1013.02 1013.11 1013.23 1013.35 1013.60 1013.92 1014.23 1014.25 1014.04 1013.68 1013.61 1013.42 1013.55 1013.58 1013.54 1013.42 1013.59 1013.73 1013.76 1014.11 1014.22
1001.02 1001.64 1002.19 1002.99 1003.78 1004.56 1005.55 1006.33 1006.84 1007.39 1007.91 1008.39 1008.74 1009.09 1009.44 1009.91 1010.38 1010.85 1011.37 1011.82 1011.83 1011.95 1012.01 1011.96 1012.04 1012.22 1012.63 1012.90 1013.12 1013.31 1013.06 1013.06 1013.04 1013.05 1012.99 1012.94 1012.74 1012.62 1012.71 1012.69 1012.86 1013.14 1013.52
1000.63 1000.77 1001.49 1002.19 1002.98 1003.78 1004.68 1005.44 1006.10 1006.63 1007.21 1007.66 1008.06 1008.19 1008.32 1008.81 1009.30 1009.82 1010.32 1010.79 1010.95 1011.10 1010.93 1010.81 1010.98 1011.06 1011.21 1011.41 1011.79 1012.10 1012.24 1012.49 1012.80 1012.78 1012.70 1012.53 1012.36 1012.08 1011.94 1011.97 1011.98 1012.22 1012.73
1000.22 1000.24 1000.86 1001.56 1002.27 1002.98 1003.80 1004.63 1005.32 1005.86 1006.25 1006.72 1006.89 1007.26 1007.42 1007.56 1008.18 1008.77 1009.24 1009.71 1010.01 1010.33 1010.30 1010.44 1010.58 1010.87 1011.02 1011.04 1011.17 1011.61 1011.88 1012.36 1012.33 1012.18 1011.95 1011.73 1011.47 1011.34 1011.49 1011.70 1012.08 1012.50 1013.01
1000.09 999.95 1000.44 1000.96 1001.66 1002.42 1003.00 1003.72 1004.31 1004.79 1005.29 1005.56 1006.00 1006.09 1006.57 1006.97 1006.93 1007.27 1008.41 1009.18 1009.29 1009.70 1009.76 1009.80 1009.94 1010.24 1010.50 1010.60 1010.68 1010.93 1011.32 1011.28 1011.30 1011.19 1011.04 1010.85 1010.68 1010.88 1011.05 1011.46 1012.09 1012.74 1013.10
1001.46 1000.10 1000.37 1000.82 1001.45 1001.99 1002.43 1002.60 1003.12 1003.54 1003.90 1004.41 1004.54 1005.18 1005.59 1005.92 1005.96 1006.00 1006.36 1007.37 1007.96 1008.33 1008.78 1009.33 1009.53 1009.68 1009.68 1009.62 1009.55 1009.60 1010.02 1010.28 1010.42 1010.38 1010.32 1010.37 1010.42 1010.46 1010.70 1011.29 1011.77 1012.41 1012.76
1002.75 1001.88 1001.06 1000.83 1001.16 1001.58 1001.96 1002.68 1003.01 1002.90 1003.40 1003.64 1003.93 1004.10 1005.48 1005.42 1005.72 1005.56 1005.51 1005.79 1006.38 1007.18 1008.34 1008.43 1008.47 1008.57 1008.52 1008.54 1008.58 1008.58 1008.72 1008.97 1009.22 1009.44 1009.70 1009.84 1009.99 1010.19 1010.47 1011.05 1011.50 1011.81 1012.14
1004.48 1003.50 1002.62 1001.93 1000.77 1000.94 1001.37 1001.99 1002.65 1003.87 1003.82 1003.72 1003.57 1003.90 1004.25 1005.14 1005.43 1005.67 1005.83 1006.02 1006.50 1007.17 1007.20 1007.34 1007.30 1007.26 1007.21 1007.16 1007.41 1007.68 1008.16 1008.49 1008.67 1008.77 1008.94 1009.13 1009.44 1009.89 1010.33 1010.71 1011.09 1011.39 1011.52
1005.42 1004.39 1003.64 1002.80 1002.18 1001.30 1000.24 1000.74 1001.26 1002.30 1003.14 1003.91 1004.24 1004.20 1004.28 1004.37 1004.78 1005.42 1005.80 1006.11 1006.86 1006.92 1006.62 1006.34 1006.17 1006.18 1006.20 1006.31 1006.63 1007.10 1007.54 1007.69 1007.83 1008.01 1008.24 1008.45 1008.94 1009.44 1009.86 1010.13 1010.48 1010.68 1010.74
1005.68 1005.50 1004.34 1003.48 1003.19 1001.98 1000.60 999.68 1000.40 1001.00 1001.96 1002.60 1003.31 1004.76 1005.28 1005.64 1005.81 1005.92 1005.71 1005.21 1005.18 1005.14 1005.16 1005.33 1005.41 1005.43 1005.37 1005.47 1005.94 1006.25 1006.47 1006.80 1006.75 1006.99 1007.44 1007.84 1008.36 1008.93 1009.29 1009.48 1009.70 1009.86 1009.99
1005.92 1005.21 1004.72 1004.12 1003.46 1002.41 1002.31 1000.95 1001.54 1000.99 1001.09 1001.70 1002.49 1003.33 1004.33 1005.21 1005.54 1005.58 1005.63 1005.15 1004.84 1004.67 1004.56 1004.32 1004.21 1004.12 1004.33 1004.62 1004.87 1005.26 1005.73 1005.94 1006.14 1006.52 1007.01 1007.35 1007.65 1008.13 1008.58 1008.71 1008.94 1009.12 1009.24
1005.92 1005.51 1005.19 1004.53 1003.71 1003.26 1003.04 1002.37 1002.38 1002.31 1002.25 1002.09 1002.60 1003.35 1003.86 1004.26 1004.58 1004.71 1004.59 1004.74 1004.18 1004.10 1003.76 1004.66 1004.18 1003.74 1003.57 1003.67 1003.86 1004.33 1004.69 1005.18 1005.57 1006.00 1006.47 1006.77 1007.15 1007.68 1007.97 1008.08 1008.37 1008.48 1008.72
1005.84 1005.46 1005.27 1005.02 1004.73 1004.18 1004.05 1003.33 1002.94 1002.98 1002.80 1002.72 1002.90 1003.54 1004.02 1004.20 1003.92 1003.84 1003.30 1004.39 1004.08 1003.94 1003.50 1004.30 1003.26 1003.22 1003.38 1003.39 1003.67 1004.04 1004.64 1004.93 1005.10 1005.38 1005.79 1006.42 1006.72 1007.10 1007.44 1007.54 1007.62 1007.85 1007.96
1006.75 1006.45 1006.26 1005.58 1005.68 1005.25 1004.75 1003.86 1004.44 1004.40 1003.74 1003.40 1004.29 1005.62 1006.12 1005.45 1004.94 1003.87 1004.78 1003.56 1004.28 1005.99 1005.57 1004.87 1005.15 1005.02 1004.93 1004.78 1005.05 1004.99 1005.00 1005.20 1004.98 1004.92 1005.33 1005.88 1006.18 1006.44 1006.82 1006.94 1006.99 1007.10 1007.10
1008.81 1008.53 1008.07 1007.63 1007.32 1007.18 1006.15 1003.65 1005.45 1006.76 1006.41 1006.72 1008.03 1008.07 1004.93 1007.63 1007.66 1006.71 1007.18 1004.91 1007.65 1007.31 1006.84 1007.76 1008.39 1007.77 1007.27 1007.39 1007.37 1007.10 1007.24 1007.20 1006.32 1005.60 1005.28 1005.35 1005.43 1005.60 1005.81 1006.02 1006.23 1006.32 1006.32
1010.53 1010.42 1010.00 1009.76 1009.56 1008.55 1008.23 1008.18 1008.21 1008.92 1009.00 1009.15 1010.40 1009.10 1009.32 1009.75 1010.16 1009.22 1009.29 1009.39 1008.99 1008.04 1008.84 1009.63 1010.20 1010.02 1009.64 1009.38 1008.91 1008.54 1008.32 1007.48 1007.12 1006.88 1005.76 1005.36 1004.96 1004.95 1004.97 1005.03 1005.34 1005.67 1005.71
1012.14 1011.83 1011.61 1011.33 1010.91 1009.89 1009.83 1011.01 1011.31 1010.95 1011.24 1011.96 1011.95 1011.96 1012.40 1012.10 1011.50 1011.21 1011.19 1010.35 1009.42 1010.00 1010.70 1011.26 1011.55 1011.34 1011.18 1010.79 1010.42 1009.94 1009.01 1008.23 1007.26 1006.93 1006.56 1005.75 1005.43 1004.70 1004.79 1004.88 1005.17 1005.62 1005.80
Thickness
5818 5815 5814 5813 5813 5814 5816 5817 5818 5819 5820 5818 5817 5815 5812 5809 5809 5807 5805 5806 5804 5804 5806 5806 5806 5811 5812 5814 5815 5815 5813 5811 5801 5809 5818 5822 5822 5822 5823 5823 5823 5821 5819
5822 5818 5815 5815 5815 5816 5816 5821 5821 5820 5821 5821 5819 5817 5815 5813 5811 5810 5808 5809 5809 5807 5809 5809 5811 5814 5814 5816 5816 5815 5815 5816 5810 5806 5815 5818 5820 5826 5828 5828 5828 5828 5826
5824 5821 5817 5817 5818 5819 5820 5821 5823 5822 5820 5819 5819 5817 5816 5815 5814 5814 5813 5810 5811 5813 5813 5813 5813 5814 5814 5817 5819 5818 5819 5819 5817 5813 5812 5822 5825 5830 5829 5832 5830 5829 5826
5830 5825 5821 5821 5823 5823 5823 5822 5823 5824 5821 5821 5821 5820 5819 5818 5818 5817 5816 5814 5814 5815 5817 5818 5818 5818 5818 5819 5820 5821 5821 5819 5818 5816 5817 5819 5824 5832 5832 5825 5822 5826 5823
5835 5828 5828 5827 5824 5822 5824 5824 5824 5824 5824 5823 5822 5822 5823 5823 5823 5820 5819 5817 5816 5816 5819 5821 5822 5824 5825 5825 5825 5824 5823 5820 5819 5818 5818 5821 5821 5822 5819 5824 5820 5822 5822
5837 5834 5830 5825 5822 5823 5823 5824 5823 5824 5826 5826 5825 5825 5825 5827 5828 5825 5823 5819 5819 5818 5817 5820 5824 5825 5826 5826 5826 5826 5826 5821 5817 5816 5816 5815 5818 5820 5822 5819 5818 5815 5811
5841 5835 5832 5830 5826 5825 5825 5823 5825 5826 5826 5827 5827 5827 5827 5829 5830 5828 5825 5824 5821 5821 5822 5822 5823 5828 5827 5828 5828 5829 5829 5828 5826 5824 5818 5819 5820 5823 5822 5819 5817 5816 5813
5841 5838 5835 5832 5830 5827 5825 5826 5827 5828 5828 5827 5828 5829 5829 5832 5831 5830 5827 5826 5825 5826 5826 5826 5826 5827 5830 5829 5830 5831 5832 5832 5832 5830 5829 5830 5831 5831 5828 5827 5824 5822 5821
5844 5841 5838 5834 5830 5827 5826 5828 5828 5827 5827 5830 5831 5830 5831 5832 5833 5832 5828 5828 5828 5828 5830 5830 5830 5830 5833 5829 5827 5828 5830 5833 5836 5836 5836 5837 5837 5836 5834 5829 5822 5816 5813
5847 5845 5841 5836 5832 5828 5829 5828 5829 5828 5829 5830 5830 5833 5834 5834 5834 5832 5830 5832 5829 5828 5831 5832 5833 5834 5833 5831 5829 5829 5828 5832 5835 5837 5838 5839 5839 5838 5837 5833 5829 5817 5813
5846 5845 5843 5840 5835 5833 5828 5828 5829 5829 5829 5828 5829 5831 5834 5835 5836 5832 5830 5834 5833 5831 5832 5835 5839 5838 5835 5834 5833 5835 5835 5837 5837 5837 5837 5838 5839 5840 5838 5836 5832 5826 5815
5843 5845 5843 5841 5838 5835 5829 5828 5828 5828 5826 5826 5826 5829 5836 5837 5836 5834 5832 5833 5836 5834 5836 5841 5843 5843 5840 5840 5838 5838 5837 5835 5835 5833 5832 5832 5833 5836 5838 5837 5834 5828 5822
5838 5842 5842 5842 5839 5835 5829 5826 5824 5826 5826 5825 5827 5827 5831 5838 5839 5835 5834 5833 5834 5836 5840 5840 5838 5837 5837 5835 5835 5835 5832 5831 5831 5830 5831 5834 5838 5841 5839 5833 5826 5821 5814
5828 5837 5839 5839 5836 5834 5833 5829 5827 5827 5827 5828 5826 5828 5829 5831 5839 5843 5836 5833 5834 5834 5836 5838 5839 5837 5835 5836 5836 5833 5833 5835 5834 5835 5835 5839 5841 5837 5832 5830 5819 5812 5807
5805 5825 5829 5833 5830 5830 5830 5832 5831 5834 5835 5832 5834 5831 5829 5832 5840 5844 5846 5842 5841 5839 5836 5833 5832 5833 5833 5836 5839 5841 5839 5837 5835 5836 5835 5834 5833 5831 5827 5823 5815 5807 5800
5786 5798 5814 5822 5824 5826 5827 5825 5824 5831 5830 5833 5835 5837 5831 5833 5833 5837 5843 5848 5844 5838 5831 5830 5829 5831 5832 5834 5836 5838 5841 5840 5838 5836 5834 5831 5828 5825 5820 5813 5808 5802 5797
5762 5777 5792 5802 5819 5821 5822 5821 5820 5817 5819 5823 5828 5828 5835 5831 5828 5829 5831 5834 5833 5828 5832 5830 5832 5834 5836 5839 5839 5837 5833 5833 5834 5832 5830 5827 5823 5818 5810 5805 5801 5797 5794
5745 5759 5773 5785 5794 5807 5824 5824 5824 5819 5816 5816 5815 5820 5820 5824 5824 5823 5823 5825 5823 5825 5829 5830 5833 5835 5836 5837 5835 5831 5828 5829 5827 5827 5826 5822 5817 5811 5805 5801 5797 5794 5793
5730 5738 5754 5768 5776 5791 5811 5825 5821 5818 5817 5815 5816 5803 5801 5803 5807 5809 5814 5825 5825 5829 5832 5829 5829 5830 5833 5834 5831 5829 5827 5824 5824 5822 5820 5816 5810 5803 5799 5797 5795 5791 5788
5715 5728 5737 5748 5759 5775 5777 5796 5797 5804 5806 5810 5809 5806 5803 5799 5803 5805 5806 5812 5817 5820 5824 5828 5831 5833 5831 5829 5829 5826 5821 5819 5815 5812 5809 5808 5804 5799 5794 5793 5791 5787 5786
5703 5713 5722 5733 5744 5753 5757 5773 5778 5786 5781 5793 5794 5796 5795 5795 5795 5798 5800 5801 5809 5810 5814 5812 5819 5824 5827 5826 5826 5821 5818 5813 5810 5806 5803 5798 5795 5789 5788 5787 5784 5783 5780
5693 5703 5711 5717 5725 5735 5739 5752 5762 5768 5772 5776 5780 5777 5773 5782 5788 5793 5797 5785 5791 5798 5804 5803 5817 5819 5819 5819 5816 5812 5809 5805 5803 5800 5796 5791 5788 5783 5780 5779 5779 5777 5776
5675 5684 5691 5703 5709 5710 5712 5730 5732 5740 5747 5752 5749 5747 5743 5749 5756 5775 5757 5784 5787 5772 5782 5791 5789 5792 5795 5798 5796 5797 5796 5793 5795 5796 5790 5783 5781 5778 5774 5772 5772 5770 5770
5642 5650 5662 5674 5681 5683 5691 5701 5709 5706 5718 5718 5711 5712 5744 5732 5733 5746 5734 5760 5741 5752 5762 5756 5751 5758 5764 5761 5761 5764 5764 5766 5772 5778 5783 5779 5777 5774 5772 5769 5767 5767 5765
5616 5622 5631 5639 5646 5662 5668 5671 5671 5675 5679 5686 5679 5689 5697 5698 5696 5711 5711 5714 5723 5737 5732 5727 5724 5727 5731 5733 5737 5741 5746 5754 5756 5756 5762 5768 5769 5767 5766 5766 5763 5760 5759
5592 5600 5607 5616 5624 5637 5643 5636 5637 5645 5648 5646 5648 5653 5656 5664 5676 5682 5686 5697 5708 5706 5703 5700 5699 5703 5704 5709 5713 5719 5727 5734 5742 5745 5744 5749 5750 5755 5754 5754 5751 5744 5742